SCP
-0 -0 -0 -0 0 0 0 0 0 0 0 0 0 0 0 0 0 0 0 0 0 0 0 0 0 0 0 0 -0 0 0 0 0 0 0 0 0 0 0 0 -0 -0 -0 0 -0 0 0
0 0 0 0 0 0 0 0 0 0 0 0 0 0 0 0 0 0 0 0 0 0 0 0 0 0 0 0 0 0 0 0 0 0 0 0 0 0 0 0 0 0 0 0 -0 0 0
0 0 0 0 0 0 0 0 0 0 0 0 0 0 0 0 0 0 0 0 0 0 0 0 0 0 0 -0 0 0 0 0 0 0 0 0 0 0 0 0 0 0 -0 -0 -0 0 0
0 0 0 0 0 0 0 0 0 0 0 0 0 0 0 0 0 0 0 0 0 -0 -0 0 0 0 0 0 0 0 0 0 0 0 0 0 0 0 0 0 0 0 -0 0 -0 -0 0
0 0 0 0 0 0 0 0 0 0 0 0 0 0 0 0 0 0 0 0 -0 -0 -0 -0 -0 0 0 0 0 0 0 0 0 0 0 0 0 0 0 0 0 0 -0 0 0 0 0
0 0 0 0 0 0 0 0 0 0 0 0 0 0 0 0 0 0 0 0 0 -0 -0 -0 -0 0 0 0 0 0 0 0 0 0 0 0 0 0 0 0 0 0 -0 -0 0 0 0
0 0 0 0 0 0 0 0 0 0 0 0 0 0 0 0 0 0 0 -0 -0 -0 -0 0 0 0 0 0 0 0 0 0 0 0 0 0 0 0 0 0 0 -0 0 0 -0 0 0
0 0 0 0 0 0 0 0 0 0 0 0 0 0 0 0 0 -0 -0 0 0 0 0 -0 0 0 0 0 0 0 0 0 0 0 0 0 -0 0 0 0 0 -0 0 0 0 0 0
0 0 0 0 0 0 0 0 0 0 0 0 0 0 0 0 0 -0 0 0 0 -0 -0 -0 -0 0 0 0 0 0 0 0 0 0 0 0 0 0 0 0 0 0 0 0 0 0 0
0 0 0 0 0 0 0 0 0 0 0 0 0 0 -0 -0 -0 0 0 0 0 0 -0 -0 -0 0 0 0 0 0 0 0 0 0 0 0 0 0 0 0 0 0 0 0 0 0 0
0 0 0 0 0 0 0 0 0 0 0 0 -0 -0 0 -0 0 0 0 0 0 -0 -0 0 0 0 0 0 0 0 0 0 0 0 0 0 0 0 0 0 0 0 0 0 0 0 0
0 0 0 0 0 0 0 0 0 0 0 -0 -0 0 0 0 0 0 0 0 0 -0 -0 0 -0 0 0 0 0 0 0 0 0 0 0 0 0 0 0 0 0 0 0 0 0 0 0
0 0 0 0 0 0 0 0 0 0 -0 0 0 0 -0 0 0 0 0 0 0 0 0 0 0 0 0 0 0 0 0 0 0 0 0 0 0 0 0 0 0 0 0 0 0 0 0
0 0 0 0 0 0 0 0 0 0 -0 0 0 0 0 0 0 0 0 0 0 0 0 0 0 0 0 0 0 0 0 0 0 0 0 0 0 0 0 0 0 0 0 0 0 0 0
0 0 0 0 0 0 0 0 0 0 0 0 0 0 0 0 0 0 0 0 0 0 0 0 0 0 0 0 0 0 0 0 0 0 0 0 0 0 0 0 0 0 0 0 0 0 0
0 0 0 0 0 0 0 0 0 0 0 0 0 -0 0 0 0 0 0 0 0 0 0 0 0 0 0 0 0 0 0 0 0 0 0 0 0 0 0 0 0 0 0 0 0 0 0
0 0 0 0 0 0 0 0 0 0 0 0 0 0 0 0 -0 0 0 0 0 0 0 0 0 0 0 0 0 0 0 0 0 0 0 0 0 0 0 0 0 0 0 0 0 0 0
0 0 0 0 0 0 0 0 0 0 0 0 0 0 0 0 0 0 0 0 0 0 0 0 0 0 0 0 0 0 0 0 0 0 0 0 0 0 0 0 0 0 0 0 0 0 0
0 0 0 0 0 0 0 0 0 0 0 0 0 0 0 -0 0 0 0 0 0 0 0 0 0 0 0 0 0 0 0 0 0 0 0 0 0 0 0 0 0 0 0 0 0 0 0
0 0 0 0 0 0 0 0 0 0 0 0 0 0 0 0 0 0 0 0 0 0 0 0 0 0 0 0 0 0 0 0 0 0 0 0 0 0 0 0 0 0 0 0 0 0 -0
0 0 0 0 0 0 0 0 0 0 0 0 0 0 0 0 0 0 0 0 0 0 0 0 0 0 0 0 0 0 0 0 0 0 0 0 0 0 0 0 0 0 0 0 0 0 0
0 0 0 0 0 0 0 0 0 0 0 0 0 0 0 0 0 0 0 0 0 0 0 0 -0 0 0 0 0 0 0 0 0 0 0 0 0 0 0 0 0 0 0 0 0 0 0
0 0 0 0 0 0 0 0 0 0 0 0 0 0 0 0 0 0 0 0 -0 0 0 -0 0 0 0 0 0 0 0 0 0 0 0 0 0 0 0 0 0 0 0 0 0 0 0
0 0 0 0 0 0 0 0 0 0 0 0 0 0 0 0 -0 -0 0 -0 0 -0 -0 0 0 0 0 0 0 0 0 0 0 0 0 0 0 0 0 0 0 0 0 0 0 0 0
0 0 0 0 0 0 0 0 0 0 0 0 0 0 0 0 0 -0 0 0 0 -0 0 -0 0 0 0 0 0 0 0 0 0 0 0 0 0 0 0 0 0 0 0 0 0 0 0
0 0 0 0 0 0 0 0 0 0 0 0 0 0 0 0 0 -0 0 -0 0 0 0 -0 0 -0 0 0 0 0 0 0 0 0 0 0 0 0 0 0 0 0 0 0 0 0 0
0 0 0 0 0 0 0 0 0 0 0 0 0 0 0 0 0 -0 0 -0 -0 -0 0 0 -0 0 0 0 0 0 0 0 0 0 0 0 0 0 0 0 0 0 0 0 0 0 0
0 0 0 0 0 0 0 0 0 0 0 0 0 0 0 0 0 -0 0 -0 -0 -0 0 0 0 0 0 0 0 0 0 0 0 0 0 0 0 0 0 0 0 0 0 0 0 0 0
0 0 0 0 0 0 0 0 0 0 0 0 0 0 0 0 0 -0 -0 -0 -0 -0 0 0 0 0 0 0 0 0 0 0 0 0 0 0 0 0 0 0 0 0 0 0 0 0 0
Wind_Speed_500mb
30 30 30 30 31 33 35 37 38 39 42 43 44 46 48 49 48 49 48 47 43 41 40 36 31 28 22 19 40 32 17 9 25 38 40 43 39 39 37 27 24 24 23 5 13 10 14
33 33 33 34 35 37 39 41 41 43 44 46 48 49 51 50 50 50 50 47 44 39 37 33 27 24 17 32 13 26 22 25 25 32 34 40 35 36 35 34 22 10 12 11 12 22 15
34 34 34 34 34 35 37 41 44 45 47 49 50 50 53 55 54 51 49 48 45 41 35 30 24 20 23 41 12 21 31 31 31 29 29 36 40 28 34 30 36 25 25 17 22 25 24
32 31 32 32 34 35 37 39 42 45 47 50 53 53 54 55 54 51 48 46 47 38 34 27 20 12 21 13 31 26 27 42 41 36 33 26 36 35 45 30 18 29 32 24 29 26 25
32 32 32 33 34 35 37 40 43 46 48 50 53 54 54 56 55 51 46 50 40 39 27 19 9 12 24 19 23 34 33 33 41 40 35 29 33 43 39 31 29 31 31 26 30 32 25
34 35 35 36 36 38 39 42 44 47 52 56 59 59 56 55 55 51 46 42 38 27 22 19 14 17 24 7 7 20 42 34 38 46 38 33 35 31 33 32 32 39 41 43 34 29 30
34 35 36 36 37 38 39 41 45 51 57 61 63 64 60 53 51 40 49 34 22 7 16 30 43 44 33 21 20 19 37 39 42 46 40 49 34 42 50 47 41 41 38 23 37 46 34
37 38 39 39 39 40 41 43 46 52 57 61 62 64 61 50 44 32 29 21 14 17 34 47 61 61 54 40 21 30 36 51 39 43 46 35 45 47 45 45 49 52 38 34 28 42 32
39 40 40 41 41 42 42 44 47 52 56 59 61 62 60 45 23 27 13 23 22 21 19 41 20 31 34 50 51 40 46 65 48 50 51 50 49 48 43 46 47 49 39 34 32 31 33
40 41 42 43 42 42 42 44 46 50 55 58 61 58 56 44 13 22 5 28 25 17 13 18 12 7 11 27 29 57 53 64 48 54 51 49 50 52 50 52 47 49 43 38 34 24 26
42 44 43 44 43 42 43 45 48 51 54 57 60 58 50 37 19 13 24 28 21 8 12 14 13 1 6 22 31 56 55 57 54 45 47 52 46 51 54 50 50 47 46 45 39 37 43
46 46 45 45 46 45 46 47 49 52 55 57 57 56 48 22 17 19 29 26 11 15 18 8 8 2 14 16 24 12 64 61 59 47 50 55 59 48 42 48 46 44 47 49 34 28 32
47 47 47 47 46 45 45 46 48 52 56 58 55 49 34 16 18 31 27 17 16 19 6 9 2 5 19 25 22 35 39 51 48 45 46 52 58 50 47 46 49 52 48 28 29 33 32
48 49 49 48 48 47 47 46 49 51 55 60 56 35 25 7 22 23 18 21 27 20 25 13 16 23 31 30 30 30 45 47 59 51 33 41 53 61 36 49 48 56 53 32 42 35 33
50 50 49 50 49 48 46 46 48 50 53 58 54 25 11 12 22 22 25 20 26 26 16 23 30 33 37 32 32 32 42 47 57 62 54 43 51 56 52 47 52 53 52 53 42 42 34
52 52 51 51 50 47 45 45 47 49 51 52 47 28 10 16 25 20 21 29 36 27 21 23 33 26 31 34 11 28 35 33 49 63 59 44 34 55 55 47 54 55 48 50 41 43 43
54 53 52 50 49 46 42 41 45 47 48 43 32 21 2 28 20 23 18 19 20 28 28 18 34 40 38 40 30 31 17 34 40 54 63 63 39 45 49 55 50 47 47 52 48 42 33
56 54 52 49 48 44 42 38 39 42 48 37 20 13 20 28 23 10 12 13 26 36 39 37 41 44 45 42 39 39 40 40 25 34 38 66 45 33 60 53 52 54 57 59 37 51 34
60 56 53 49 46 43 37 34 33 35 40 38 26 26 12 22 12 18 21 24 29 30 29 35 43 46 45 46 42 34 46 50 31 30 19 22 55 35 44 48 49 58 61 56 57 47 49
64 58 53 48 45 42 36 32 29 29 29 28 21 9 4 8 12 15 22 25 25 24 26 48 43 49 46 44 41 43 49 35 18 31 36 26 38 50 38 47 50 60 54 62 55 45 47
67 59 53 47 43 38 35 28 27 24 22 16 11 8 9 11 21 23 24 26 24 21 19 41 40 49 45 41 37 44 51 40 26 28 26 27 34 44 53 40 50 56 60 57 65 58 57
67 59 52 45 40 36 32 25 22 21 19 6 13 12 21 37 22 22 21 7 14 21 7 24 9 30 40 40 40 34 44 46 35 18 18 33 31 43 48 52 47 59 60 60 58 55 56
64 54 49 42 38 34 31 24 19 20 13 11 12 13 13 25 33 14 10 17 22 17 13 19 24 16 39 30 27 32 30 31 24 17 25 31 28 36 41 52 42 46 60 57 48 58 51
60 52 48 43 38 32 29 25 20 22 19 19 19 12 8 18 21 20 22 21 18 22 25 24 32 29 31 34 39 36 37 35 37 32 29 18 26 29 34 38 46 24 40 49 50 47 49
56 50 47 44 39 31 25 24 20 23 24 25 25 24 9 13 25 28 27 27 23 20 17 20 22 31 43 43 17 21 23 33 38 38 31 27 24 23 31 34 33 38 22 48 49 51 45
54 49 46 44 38 32 21 21 21 21 23 26 26 23 16 6 5 29 31 22 11 17 11 18 30 34 29 18 23 28 25 24 27 33 35 30 27 24 30 47 33 21 15 13 3 22 22
51 48 46 44 39 32 22 16 16 16 20 21 28 26 21 12 32 25 29 25 28 22 16 24 39 22 22 21 24 17 18 21 28 37 33 24 24 32 29 35 15 19 15 10 28 12 15
49 47 46 45 40 33 23 14 13 14 16 17 21 19 25 14 37 28 23 28 30 18 7 28 20 10 18 11 8 6 7 7 7 6 24 26 20 25 31 33 13 34 7 6 16 20 17
47 45 46 45 38 31 23 12 9 10 12 13 17 13 30 26 23 33 33 20 19 22 23 17 9 17 10 11 5 10 8 4 2 16 2 3 14 5 16 13 20 36 37 28 25 22 21
Wind_Direction_500mb
41 38 36 32 29 25 20 16 13 9 4 0 357 354 350 347 342 337 335 332 328 321 318 313 302 298 293 249 253 268 247 190 185 181 202 212 218 228 236 244 229 238 267 281 165 170 140
35 31 27 24 22 18 15 12 8 5 1 357 355 353 350 347 343 338 335 335 331 324 318 313 304 290 267 256 256 242 210 205 176 187 208 212 220 223 244 266 250 257 270 286 179 142 146
27 24 20 18 15 11 8 5 2 359 356 352 350 350 348 346 342 338 335 334 334 326 317 310 302 282 247 240 237 222 207 202 197 199 211 217 220 231 235 267 241 258 253 180 177 157 149
21 17 14 10 6 3 1 359 358 355 352 348 345 345 345 342 341 338 335 335 333 330 322 310 298 260 256 262 227 228 208 214 215 221 226 227 223 237 245 264 260 239 239 203 152 167 154
14 9 4 1 359 358 357 357 356 354 350 346 342 341 341 340 340 338 336 333 334 328 328 321 326 226 263 239 247 219 209 212 212 215 218 227 220 225 230 237 242 212 223 222 161 186 146
6 1 358 356 356 356 356 356 356 355 352 348 343 340 339 338 339 337 339 337 332 325 339 331 266 248 244 264 231 223 213 211 204 200 200 214 211 217 230 213 228 212 227 152 212 179 163
0 358 356 354 351 351 351 353 355 355 351 347 343 339 338 337 337 346 349 348 332 252 279 279 276 268 277 267 258 233 201 199 192 194 199 202 207 211 211 222 231 233 212 238 183 164 197
354 353 351 350 348 346 346 348 352 352 349 346 345 342 339 340 341 355 14 17 11 315 300 282 268 261 252 245 270 232 192 196 198 198 202 192 217 219 222 211 231 246 246 217 199 156 200
350 348 346 345 344 343 343 344 348 349 347 346 346 344 342 349 360 4 357 5 335 323 265 297 262 252 243 225 237 237 195 201 203 210 204 217 211 219 218 228 219 233 241 218 204 168 192
347 344 343 343 341 338 338 339 342 344 345 346 345 343 341 350 359 330 326 333 333 318 280 160 154 103 201 220 241 222 205 203 206 215 217 219 225 205 225 220 215 222 230 255 218 152 244
345 344 343 339 338 336 334 336 339 341 343 344 344 341 342 341 330 343 316 323 316 284 281 88 104 19 199 219 329 193 205 207 224 209 215 217 217 222 209 218 219 228 210 235 244 196 221
348 345 342 340 339 337 334 335 336 339 340 342 343 339 336 340 321 310 323 313 291 236 249 151 129 220 263 221 232 245 200 209 217 228 225 234 213 223 219 218 216 227 237 212 240 241 235
349 345 342 341 338 334 332 332 335 337 338 338 340 334 328 336 309 316 317 296 243 242 94 291 13 318 306 290 249 216 202 203 215 217 220 219 232 215 229 215 212 222 222 211 210 225 234
348 346 343 339 335 334 333 333 334 336 338 337 339 342 325 295 324 323 312 254 250 283 284 301 277 306 287 288 269 254 234 213 216 218 213 212 212 220 206 217 211 216 219 224 199 213 222
345 344 342 340 336 335 334 333 333 335 340 338 340 342 310 295 328 321 283 248 245 269 352 326 319 285 272 251 255 271 226 229 215 220 228 203 224 202 205 214 227 202 220 227 229 217 229
341 340 339 338 335 335 334 331 331 336 343 344 338 325 248 327 318 290 261 263 290 330 328 315 288 289 285 285 192 247 250 226 227 216 234 243 213 220 197 215 219 233 208 219 231 225 219
338 336 335 333 333 334 332 329 330 338 344 349 341 306 120 323 315 244 249 303 348 337 351 297 302 294 281 284 288 271 286 250 218 227 221 239 245 211 190 204 202 209 212 216 232 236 229
335 332 330 330 329 331 329 328 331 340 345 359 316 295 342 332 281 188 281 8 315 295 292 285 280 270 271 282 275 261 260 265 356 314 250 226 242 234 202 200 216 213 218 206 228 228 242
335 331 327 325 324 326 324 326 327 339 349 344 313 295 305 334 304 341 338 307 300 292 288 276 267 265 261 260 258 263 271 275 295 300 5 258 233 226 219 192 208 222 210 221 214 233 237
335 331 326 323 321 320 319 316 319 328 342 350 306 299 354 298 322 313 320 306 312 315 327 298 295 264 259 249 239 247 263 237 263 287 330 307 258 229 217 201 197 210 212 211 221 218 227
336 333 327 323 320 316 314 311 312 314 332 349 294 322 27 311 331 327 296 300 331 334 311 294 282 255 255 248 237 235 242 267 268 280 269 253 249 239 236 224 207 202 219 211 221 220 224
337 334 329 325 321 315 311 307 306 300 312 307 310 329 315 294 316 288 279 324 282 282 290 290 269 309 311 277 245 221 236 236 248 269 310 269 244 238 228 238 210 206 204 223 216 224 222
337 337 334 328 323 317 310 303 281 280 283 264 266 301 282 282 276 283 322 309 302 342 270 258 284 279 284 278 346 313 303 299 309 308 291 287 231 221 233 223 217 209 207 212 212 219 223
339 340 339 336 327 316 309 305 274 261 250 250 272 265 267 276 300 336 317 307 307 294 280 284 273 249 232 303 301 263 254 255 255 256 253 264 264 236 226 221 223 209 215 201 221 225 222
339 342 341 342 338 324 309 300 289 262 255 243 259 227 207 273 304 307 349 319 316 305 268 314 327 307 308 306 284 227 223 222 232 239 233 233 249 230 228 221 211 213 192 198 206 216 216
339 342 344 343 341 335 315 296 289 267 258 246 256 242 220 269 225 333 304 307 339 320 309 343 321 309 292 275 252 235 205 197 216 214 216 217 223 266 223 221 204 118 43 12 286 168 36
337 341 344 341 341 337 328 301 284 273 258 248 248 247 225 229 277 327 323 331 317 328 325 348 336 318 250 261 256 230 211 162 207 213 171 210 215 217 235 218 100 354 338 306 202 97 54
337 340 343 342 342 339 331 310 283 271 268 249 251 256 227 233 267 290 307 309 309 328 331 336 323 332 306 326 345 348 355 85 259 309 179 192 195 205 232 222 123 339 59 319 39 77 51
335 339 342 344 346 341 337 321 288 269 272 244 252 275 233 237 257 291 297 283 281 281 277 281 309 284 314 312 28 253 39 286 187 190 89 131 22 345 18 73 69 57 82 72 71 65 43
Wind_Speed_850mb
30 30 30 30 31 33 35 37 38 39 42 43 44 46 48 49 48 49 48 47 43 41 40 36 31 28 22 19 40 32 17 9 25 38 40 43 39 39 37 27 24 24 23 5 13 10 14
33 33 33 34 35 37 39 41 41 43 44 46 48 49 51 50 50 50 50 47 44 39 37 33 27 24 17 32 13 26 22 25 25 32 34 40 35 36 35 34 22 10 12 11 12 22 15
34 34 34 34 34 35 37 41 44 45 47 49 50 50 53 55 54 51 49 48 45 41 35 30 24 20 23 41 12 21 31 31 31 29 29 36 40 28 34 30 36 25 25 17 22 25 24
32 31 32 32 34 35 37 39 42 45 47 50 53 53 54 55 54 51 48 46 47 38 34 27 20 12 21 13 31 26 27 42 41 36 33 26 36 35 45 30 18 29 32 24 29 26 25
32 32 32 33 34 35 37 40 43 46 48 50 53 54 54 56 55 51 46 50 40 39 27 19 9 12 24 19 23 34 33 33 41 40 35 29 33 43 39 31 29 31 31 26 30 32 25
34 35 35 36 36 38 39 42 44 47 52 56 59 59 56 55 55 51 46 42 38 27 22 19 14 17 24 7 7 20 42 34 38 46 38 33 35 31 33 32 32 39 41 43 34 29 30
34 35 36 36 37 38 39 41 45 51 57 61 63 64 60 53 51 40 49 34 22 7 16 30 43 44 33 21 20 19 37 39 42 46 40 49 34 42 50 47 41 41 38 23 37 46 34
37 38 39 39 39 40 41 43 46 52 57 61 62 64 61 50 44 32 29 21 14 17 34 47 61 61 54 40 21 30 36 51 39 43 46 35 45 47 45 45 49 52 38 34 28 42 32
39 40 40 41 41 42 42 44 47 52 56 59 61 62 60 45 23 27 13 23 22 21 19 41 20 31 34 50 51 40 46 65 48 50 51 50 49 48 43 46 47 49 39 34 32 31 33
40 41 42 43 42 42 42 44 46 50 55 58 61 58 56 44 13 22 5 28 25 17 13 18 12 7 11 27 29 57 53 64 48 54 51 49 50 52 50 52 47 49 43 38 34 24 26
42 44 43 44 43 42 43 45 48 51 54 57 60 58 50 37 19 13 24 28 21 8 12 14 13 1 6 22 31 56 55 57 54 45 47 52 46 51 54 50 50 47 46 45 39 37 43
46 46 45 45 46 45 46 47 49 52 55 57 57 56 48 22 17 19 29 26 11 15 18 8 8 2 14 16 24 12 64 61 59 47 50 55 59 48 42 48 46 44 47 49 34 28 32
47 47 47 47 46 45 45 46 48 52 56 58 55 49 34 16 18 31 27 17 16 19 6 9 2 5 19 25 22 35 39 51 48 45 46 52 58 50 47 46 49 52 48 28 29 33 32
48 49 49 48 48 47 47 46 49 51 55 60 56 35 25 7 22 23 18 21 27 20 25 13 16 23 31 30 30 30 45 47 59 51 33 41 53 61 36 49 48 56 53 32 42 35 33
50 50 49 50 49 48 46 46 48 50 53 58 54 25 11 12 22 22 25 20 26 26 16 23 30 33 37 32 32 32 42 47 57 62 54 43 51 56 52 47 52 53 52 53 42 42 34
52 52 51 51 50 47 45 45 47 49 51 52 47 28 10 16 25 20 21 29 36 27 21 23 33 26 31 34 11 28 35 33 49 63 59 44 34 55 55 47 54 55 48 50 41 43 43
54 53 52 50 49 46 42 41 45 47 48 43 32 21 2 28 20 23 18 19 20 28 28 18 34 40 38 40 30 31 17 34 40 54 63 63 39 45 49 55 50 47 47 52 48 42 33
56 54 52 49 48 44 42 38 39 42 48 37 20 13 20 28 23 10 12 13 26 36 39 37 41 44 45 42 39 39 40 40 25 34 38 66 45 33 60 53 52 54 57 59 37 51 34
60 56 53 49 46 43 37 34 33 35 40 38 26 26 12 22 12 18 21 24 29 30 29 35 43 46 45 46 42 34 46 50 31 30 19 22 55 35 44 48 49 58 61 56 57 47 49
64 58 53 48 45 42 36 32 29 29 29 28 21 9 4 8 12 15 22 25 25 24 26 48 43 49 46 44 41 43 49 35 18 31 36 26 38 50 38 47 50 60 54 62 55 45 47
67 59 53 47 43 38 35 28 27 24 22 16 11 8 9 11 21 23 24 26 24 21 19 41 40 49 45 41 37 44 51 40 26 28 26 27 34 44 53 40 50 56 60 57 65 58 57
67 59 52 45 40 36 32 25 22 21 19 6 13 12 21 37 22 22 21 7 14 21 7 24 9 30 40 40 40 34 44 46 35 18 18 33 31 43 48 52 47 59 60 60 58 55 56
64 54 49 42 38 34 31 24 19 20 13 11 12 13 13 25 33 14 10 17 22 17 13 19 24 16 39 30 27 32 30 31 24 17 25 31 28 36 41 52 42 46 60 57 48 58 51
60 52 48 43 38 32 29 25 20 22 19 19 19 12 8 18 21 20 22 21 18 22 25 24 32 29 31 34 39 36 37 35 37 32 29 18 26 29 34 38 46 24 40 49 50 47 49
56 50 47 44 39 31 25 24 20 23 24 25 25 24 9 13 25 28 27 27 23 20 17 20 22 31 43 43 17 21 23 33 38 38 31 27 24 23 31 34 33 38 22 48 49 51 45
54 49 46 44 38 32 21 21 21 21 23 26 26 23 16 6 5 29 31 22 11 17 11 18 30 34 29 18 23 28 25 24 27 33 35 30 27 24 30 47 33 21 15 13 3 22 22
51 48 46 44 39 32 22 16 16 16 20 21 28 26 21 12 32 25 29 25 28 22 16 24 39 22 22 21 24 17 18 21 28 37 33 24 24 32 29 35 15 19 15 10 28 12 15
49 47 46 45 40 33 23 14 13 14 16 17 21 19 25 14 37 28 23 28 30 18 7 28 20 10 18 11 8 6 7 7 7 6 24 26 20 25 31 33 13 34 7 6 16 20 17
47 45 46 45 38 31 23 12 9 10 12 13 17 13 30 26 23 33 33 20 19 22 23 17 9 17 10 11 5 10 8 4 2 16 2 3 14 5 16 13 20 36 37 28 25 22 21
Wind_Direction_850mb
41 38 36 32 29 25 20 16 13 9 4 0 357 354 350 347 342 337 335 332 328 321 318 313 302 298 293 249 253 268 247 190 185 181 202 212 218 228 236 244 229 238 267 281 165 170 140
35 31 27 24 22 18 15 12 8 5 1 357 355 353 350 347 343 338 335 335 331 324 318 313 304 290 267 256 256 242 210 205 176 187 208 212 220 223 244 266 250 257 270 286 179 142 146
27 24 20 18 15 11 8 5 2 359 356 352 350 350 348 346 342 338 335 334 334 326 317 310 302 282 247 240 237 222 207 202 197 199 211 217 220 231 235 267 241 258 253 180 177 157 149
21 17 14 10 6 3 1 359 358 355 352 348 345 345 345 342 341 338 335 335 333 330 322 310 298 260 256 262 227 228 208 214 215 221 226 227 223 237 245 264 260 239 239 203 152 167 154
14 9 4 1 359 358 357 357 356 354 350 346 342 341 341 340 340 338 336 333 334 328 328 321 326 226 263 239 247 219 209 212 212 215 218 227 220 225 230 237 242 212 223 222 161 186 146
6 1 358 356 356 356 356 356 356 355 352 348 343 340 339 338 339 337 339 337 332 325 339 331 266 248 244 264 231 223 213 211 204 200 200 214 211 217 230 213 228 212 227 152 212 179 163
0 358 356 354 351 351 351 353 355 355 351 347 343 339 338 337 337 346 349 348 332 252 279 279 276 268 277 267 258 233 201 199 192 194 199 202 207 211 211 222 231 233 212 238 183 164 197
354 353 351 350 348 346 346 348 352 352 349 346 345 342 339 340 341 355 14 17 11 315 300 282 268 261 252 245 270 232 192 196 198 198 202 192 217 219 222 211 231 246 246 217 199 156 200
350 348 346 345 344 343 343 344 348 349 347 346 346 344 342 349 360 4 357 5 335 323 265 297 262 252 243 225 237 237 195 201 203 210 204 217 211 219 218 228 219 233 241 218 204 168 192
347 344 343 343 341 338 338 339 342 344 345 346 345 343 341 350 359 330 326 333 333 318 280 160 154 103 201 220 241 222 205 203 206 215 217 219 225 205 225 220 215 222 230 255 218 152 244
345 344 343 339 338 336 334 336 339 341 343 344 344 341 342 341 330 343 316 323 316 284 281 88 104 19 199 219 329 193 205 207 224 209 215 217 217 222 209 218 219 228 210 235 244 196 221
348 345 342 340 339 337 334 335 336 339 340 342 343 339 336 340 321 310 323 313 291 236 249 151 129 220 263 221 232 245 200 209 217 228 225 234 213 223 219 218 216 227 237 212 240 241 235
349 345 342 341 338 334 332 332 335 337 338 338 340 334 328 336 309 316 317 296 243 242 94 291 13 318 306 290 249 216 202 203 215 217 220 219 232 215 229 215 212 222 222 211 210 225 234
348 346 343 339 335 334 333 333 334 336 338 337 339 342 325 295 324 323 312 254 250 283 284 301 277 306 287 288 269 254 234 213 216 218 213 212 212 220 206 217 211 216 219 224 199 213 222
345 344 342 340 336 335 334 333 333 335 340 338 340 342 310 295 328 321 283 248 245 269 352 326 319 285 272 251 255 271 226 229 215 220 228 203 224 202 205 214 227 202 220 227 229 217 229
341 340 339 338 335 335 334 331 331 336 343 344 338 325 248 327 318 290 261 263 290 330 328 315 288 289 285 285 192 247 250 226 227 216 234 243 213 220 197 215 219 233 208 219 231 225 219
338 336 335 333 333 334 332 329 330 338 344 349 341 306 120 323 315 244 249 303 348 337 351 297 302 294 281 284 288 271 286 250 218 227 221 239 245 211 190 204 202 209 212 216 232 236 229
335 332 330 330 329 331 329 328 331 340 345 359 316 295 342 332 281 188 281 8 315 295 292 285 280 270 271 282 275 261 260 265 356 314 250 226 242 234 202 200 216 213 218 206 228 228 242
335 331 327 325 324 326 324 326 327 339 349 344 313 295 305 334 304 341 338 307 300 292 288 276 267 265 261 260 258 263 271 275 295 300 5 258 233 226 219 192 208 222 210 221 214 233 237
335 331 326 323 321 320 319 316 319 328 342 350 306 299 354 298 322 313 320 306 312 315 327 298 295 264 259 249 239 247 263 237 263 287 330 307 258 229 217 201 197 210 212 211 221 218 227
336 333 327 323 320 316 314 311 312 314 332 349 294 322 27 311 331 327 296 300 331 334 311 294 282 255 255 248 237 235 242 267 268 280 269 253 249 239 236 224 207 202 219 211 221 220 224
337 334 329 325 321 315 311 307 306 300 312 307 310 329 315 294 316 288 279 324 282 282 290 290 269 309 311 277 245 221 236 236 248 269 310 269 244 238 228 238 210 206 204 223 216 224 222
337 337 334 328 323 317 310 303 281 280 283 264 266 301 282 282 276 283 322 309 302 342 270 258 284 279 284 278 346 313 303 299 309 308 291 287 231 221 233 223 217 209 207 212 212 219 223
339 340 339 336 327 316 309 305 274 261 250 250 272 265 267 276 300 336 317 307 307 294 280 284 273 249 232 303 301 263 254 255 255 256 253 264 264 236 226 221 223 209 215 201 221 225 222
339 342 341 342 338 324 309 300 289 262 255 243 259 227 207 273 304 307 349 319 316 305 268 314 327 307 308 306 284 227 223 222 232 239 233 233 249 230 228 221 211 213 192 198 206 216 216
339 342 344 343 341 335 315 296 289 267 258 246 256 242 220 269 225 333 304 307 339 320 309 343 321 309 292 275 252 235 205 197 216 214 216 217 223 266 223 221 204 118 43 12 286 168 36
337 341 344 341 341 337 328 301 284 273 258 248 248 247 225 229 277 327 323 331 317 328 325 348 336 318 250 261 256 230 211 162 207 213 171 210 215 217 235 218 100 354 338 306 202 97 54
337 340 343 342 342 339 331 310 283 271 268 249 251 256 227 233 267 290 307 309 309 328 331 336 323 332 306 326 345 348 355 85 259 309 179 192 195 205 232 222 123 339 59 319 39 77 51
335 339 342 344 346 341 337 321 288 269 272 244 252 275 233 237 257 291 297 283 281 281 277 281 309 284 314 312 28 253 39 286 187 190 89 131 22 345 18 73 69 57 82 72 71 65 43